Location: O'Brien
(30.0517°N, 82.9900°W)
Time: 00:38:52
(UTC-05:00)

Hubble Space Telescope - Pass Details

Date: 26 October 2019
Orbit: 536 x 540 km, 28.5° (Epoch: 10 November)

Event Time Altitude Azimuth Distance (km) Brightness Sun altitude
Exits shadow 05:56:41 - 183° (S) 1,999 3.7 -23.2°
Reaches altitude 10° 05:58:23 10° 162° (SSE) 1,773 3.6 -22.9°
Maximum altitude 05:59:02 10° 152° (SSE) 1,753 3.7 -22.7°
Drops below altitude 10° 05:59:42 10° 143° (SE) 1,774 3.9 -22.6°
Sets 06:03:59 0° 101° (E) 2,667 5.8 -21.6°
